FREGAT DEB, 45847

Orbit data source: Space-Track

FREGAT DEB, 45847 is space debris in LEO originally from a launch on Mon, 18 Jul 2011 UTC launched from the Tyuratam Missile And Space Complex (TTMTR). Debris objects in space refer to the collection of defunct objects orbiting the Earth. Examples of debris include non-operational satellites, rocket bodies, and fragments generated from explosions, collisions, or faulty payload assembly.

Loading next visibility...
Identifier
45847, 2011-037CH
Orbit
LEO
Last TLE update
1 day ago
Origin
Manufacturer
Lavochkin
Mission
Spacecraft
Bus & Motor
Unknown
Mass
Unknown
Launch date (UTC)
2011-07-18 (14 years ago)
Launch vehicle
Unknown
Launch site
Tyuratam Missile And Space Complex (TTMTR)
Object type
Payload
Rocket body
Debris
Shape & HBR
Unknown
Radar Cross Section
Small (<0.1 m²)

Expand to show TLE details & history

TLE from 1 day ago
0 FREGAT DEB
1 45847U 11037CH  25187.96562102  .00025077  00000-0  20155-2 0  9990
2 45847  51.4134  37.1259 1195904 245.6748 101.4824 12.93656388216145
Epoch: 2025-07-06T23:10Z
TLE epoch observation values (Epoch: 2025-07-06T23:10:29.656Z)
Latitude
-0.00001°
Longitude
124.32059°
Altitude
1,570.893 km
Speed
6.952 km/s
True Right ascension
02h 28m 30s
True Declination
0° 00' 00"
Sunlit
Object was in daylight at epoch
Visualization orbit readout
Latitude
-5.73998°
Longitude
-55.67267°
Altitude
776.187 km
Speed
7.712 km/s
Apparent Right ascension
11h 59m 24s
Apparent Declination
-30° 54' 16"
Sunlit
Object is in daylight
Visualization observer readout
Local Sidereal Time
19:52:44
Azimuth
260.039° W
Elevation
-39.932°
Doppler factor
1
Orbital elements
Apogee altitude
2,204.283 km
Perigee altitude
370.8 km
Semi-major axis
7,665.678 km
Eccentricity
0.11959
Inclination
51.4134°
RAAN
37.1259°
Arg. of periapsis
245.6748°
True anomaly
Unknown
Mean anomaly
101.4824°
Eccentric anomaly
Unknown
Mean motion
3.23383 °/min
Orbital period
111.32 mins
BSTAR
0.0020155
Loading maneuver chart data...
Loading SW <> Apogee altitude chart data...
Loading historical data...
Loading historical data...
Loading historical data...
Loading historical data...
Loading historical data...
Loading historical data...
Loading historical data...

FREGAT DEB Visibility forecast

Observer location: undefined°, undefined°

Span
Click to sort rows by Start time (UTC) header in descending order
Start Az.
Max El. time (UTC)
Max El. Az.
Max El.
End time (UTC)
End Az.
17 mins2025-07-08 14:12:07.343Z164.778° S2025-07-08 14:20:07.343Z115.637° SE24.446°2025-07-08 14:29:07.343Z69.3° E
23 mins2025-07-08 16:06:07.343Z218.25° SW2025-07-08 16:16:07.343Z136.289° SSE44.174°2025-07-08 16:29:07.343Z54.8° ENE
23 mins2025-07-08 18:04:07.343Z262.802° W2025-07-08 18:15:07.343Z342.67° N40.912°2025-07-08 18:27:07.343Z57.021° ENE
21 mins2025-07-08 20:04:07.343Z293.536° NW2025-07-08 20:15:07.343Z2.535° NNE37.093°2025-07-08 20:25:07.343Z73.037° E
21 mins2025-07-08 22:03:07.343Z305.731° NW2025-07-08 22:15:07.343Z35.555° NE42.747°2025-07-08 22:24:07.343Z109.441° ESE
17 mins2025-07-09 00:02:07.343Z301.193° NW2025-07-09 00:12:07.343Z231.664° WSW38.515°2025-07-09 00:19:07.343Z160.788° S
|